�������l�o���
Date,Time,MP-1(��Sv/h),MP-2(��Sv/h),MP-3(��Sv/h),MP-4(��Sv/h),MP-5(��Sv/h),MP-6(��Sv/h),MP-7(��Sv/h),����,����(m/s),���J
2022/11/12,00:00,0.158,0.145,0.228,0.220,0.217,0.126,0.080,-,CALM,��
2022/11/12,00:10,0.158,0.144,0.229,0.219,0.218,0.125,0.080,-,CALM,��
2022/11/12,00:20,0.158,0.144,0.229,0.220,0.216,0.127,0.080,-,CALM,��
2022/11/12,00:30,0.158,0.143,0.229,0.220,0.218,0.126,0.081,-,CALM,��
2022/11/12,00:40,0.158,0.144,0.230,0.220,0.218,0.125,0.080,-,CALM,��
2022/11/12,00:50,0.157,0.144,0.229,0.221,0.217,0.126,0.081,-,CALM,��
2022/11/12,01:00,0.158,0.143,0.229,0.220,0.217,0.125,0.080,-,CALM,��
2022/11/12,01:10,0.158,0.143,0.229,0.221,0.217,0.126,0.080,-,CALM,��
2022/11/12,01:20,0.158,0.144,0.230,0.219,0.218,0.126,0.080,�쐼,1.0,��
2022/11/12,01:30,0.157,0.143,0.230,0.221,0.217,0.125,0.081,-,CALM,��
2022/11/12,01:40,0.157,0.144,0.230,0.220,0.219,0.126,0.080,-,CALM,��
2022/11/12,01:50,0.157,0.144,0.229,0.220,0.217,0.126,0.080,���쐼,1.0,��
2022/11/12,02:00,0.157,0.143,0.230,0.220,0.219,0.126,0.080,�쐼,1.5,��
2022/11/12,02:10,0.159,0.144,0.229,0.218,0.217,0.125,0.080,�쐼,1.1,��
2022/11/12,02:20,0.157,0.144,0.230,0.221,0.218,0.126,0.081,��쐼,0.7,��
2022/11/12,02:30,0.158,0.143,0.230,0.219,0.217,0.126,0.080,��쐼,1.0,��
2022/11/12,02:40,0.158,0.144,0.230,0.220,0.218,0.125,0.081,�쐼,1.5,��
2022/11/12,02:50,0.158,0.144,0.230,0.219,0.219,0.126,0.080,�쐼,1.5,��
2022/11/12,03:00,0.159,0.144,0.230,0.219,0.217,0.126,0.081,��쐼,1.5,��
2022/11/12,03:10,0.158,0.143,0.228,0.220,0.219,0.126,0.080,�쐼,1.2,��
2022/11/12,03:20,0.158,0.143,0.229,0.221,0.217,0.126,0.080,��쐼,1.5,��
2022/11/12,03:30,0.159,0.144,0.229,0.219,0.217,0.126,0.079,��쐼,1.4,��
2022/11/12,03:40,0.158,0.143,0.229,0.220,0.217,0.126,0.080,��쐼,1.5,��
2022/11/12,03:50,0.159,0.143,0.229,0.219,0.218,0.126,0.079,�쐼,1.8,��
2022/11/12,04:00,0.157,0.144,0.230,0.219,0.218,0.126,0.080,�쐼,2.3,��
2022/11/12,04:10,0.159,0.144,0.229,0.220,0.216,0.126,0.080,�쐼,2.3,��
2022/11/12,04:20,0.157,0.143,0.229,0.220,0.219,0.126,0.080,��,1.7,��
2022/11/12,04:30,0.158,0.144,0.230,0.219,0.218,0.126,0.080,��쐼,2.4,��
2022/11/12,04:40,0.159,0.144,0.228,0.220,0.219,0.126,0.081,��쐼,2.5,��
2022/11/12,04:50,0.158,0.144,0.229,0.219,0.217,0.127,0.080,��쐼,1.8,��
2022/11/12,05:00,0.158,0.144,0.229,0.220,0.217,0.125,0.080,��,2.1,��
2022/11/12,05:10,0.157,0.144,0.229,0.220,0.219,0.126,0.080,��쐼,2.9,��
2022/11/12,05:20,0.158,0.143,0.228,0.219,0.217,0.126,0.080,��쐼,2.5,��
2022/11/12,05:30,0.159,0.144,0.229,0.220,0.218,0.126,0.080,��쐼,3.7,��
2022/11/12,05:40,0.159,0.143,0.231,0.220,0.217,0.125,0.080,��쐼,3.7,��
2022/11/12,05:50,0.157,0.143,0.229,0.220,0.217,0.126,0.080,�쐼,3.6,��
2022/11/12,06:00,0.158,0.144,0.230,0.220,0.219,0.125,0.079,�쐼,3.8,��
2022/11/12,06:10,0.158,0.143,0.230,0.219,0.216,0.126,0.080,��쐼,4.0,��
2022/11/12,06:20,0.158,0.143,0.228,0.219,0.217,0.125,0.080,��쐼,3.0,��
2022/11/12,06:30,0.158,0.143,0.230,0.220,0.217,0.125,0.080,�쐼,3.0,��
2022/11/12,06:40,0.157,0.144,0.230,0.220,0.216,0.124,0.081,�쐼,3.2,��
2022/11/12,06:50,0.159,0.143,0.229,0.219,0.218,0.127,0.080,�쐼,3.8,��
2022/11/12,07:00,0.158,0.144,0.230,0.219,0.216,0.126,0.079,�쐼,4.4,��
2022/11/12,07:10,0.158,0.144,0.230,0.220,0.218,0.126,0.080,�쐼,3.8,��
2022/11/12,07:20,0.158,0.143,0.230,0.219,0.217,0.126,0.080,�쐼,4.2,��
2022/11/12,07:30,0.158,0.143,0.230,0.219,0.217,0.125,0.080,�쐼,3.8,��
2022/11/12,07:40,0.158,0.144,0.229,0.219,0.219,0.126,0.080,�쐼,3.3,��
2022/11/12,07:50,0.157,0.143,0.229,0.219,0.215,0.126,0.080,�쐼,3.7,��
2022/11/12,08:00,0.157,0.142,0.229,0.219,0.219,0.126,0.080,�쐼,2.9,��
2022/11/12,08:10,0.158,0.143,0.230,0.218,0.216,0.125,0.080,�쐼,2.1,��
2022/11/12,08:20,0.158,0.143,0.228,0.218,0.219,0.126,0.080,��쐼,2.1,��
2022/11/12,08:30,0.157,0.143,0.228,0.217,0.216,0.125,0.080,��쐼,1.7,��
2022/11/12,08:40,0.158,0.144,0.230,0.219,0.218,0.125,0.080,��,1.8,��
2022/11/12,08:50,0.157,0.143,0.230,0.220,0.217,0.125,0.081,��쓌,2.0,��
2022/11/12,09:00,0.158,0.142,0.229,0.217,0.219,0.125,0.080,��쓌,2.6,��
2022/11/12,09:10,0.157,0.144,0.229,0.219,0.216,0.126,0.079,��쓌,2.7,��
2022/11/12,09:20,0.159,0.144,0.228,0.219,0.219,0.126,0.080,��쓌,2.8,��
2022/11/12,09:30,0.157,0.143,0.229,0.217,0.215,0.125,0.080,��쓌,3.4,��
2022/11/12,09:40,0.158,0.143,0.228,0.219,0.216,0.126,0.079,��,3.9,��
2022/11/12,09:50,0.156,0.142,0.228,0.218,0.218,0.123,0.079,��,5.3,��
2022/11/12,10:00,0.156,0.143,0.227,0.217,0.214,0.125,0.080,��쓌,5.0,��
2022/11/12,10:10,0.157,0.142,0.228,0.219,0.214,0.125,0.079,��,5.7,��
2022/11/12,10:20,0.156,0.142,0.228,0.219,0.218,0.125,0.079,��,6.0,��
2022/11/12,10:30,0.155,0.142,0.226,0.218,0.217,0.126,0.079,��,5.9,��
2022/11/12,10:40,0.155,0.142,0.225,0.219,0.216,0.125,0.080,��,5.6,��
2022/11/12,10:50,0.158,0.142,0.228,0.220,0.214,0.125,0.079,��,5.5,��
2022/11/12,11:00,0.157,0.143,0.227,0.217,0.218,0.126,0.080,��,5.9,��
2022/11/12,11:10,0.155,0.143,0.226,0.217,0.218,0.125,0.079,��,6.6,��
2022/11/12,11:20,0.156,0.143,0.229,0.221,0.215,0.124,0.080,��쐼,5.4,��
2022/11/12,11:30,0.155,0.142,0.228,0.220,0.214,0.125,0.079,��,5.2,��
2022/11/12,11:40,0.155,0.142,0.228,0.218,0.215,0.125,0.079,��,5.0,��
2022/11/12,11:50,0.158,0.143,0.229,0.221,0.219,0.124,0.079,��,4.3,��
2022/11/12,12:00,0.158,0.144,0.230,0.219,0.217,0.127,0.080,��,5.0,��
2022/11/12,12:10,0.157,0.142,0.227,0.217,0.215,0.125,0.079,��,5.1,��
2022/11/12,12:20,0.156,0.143,0.228,0.220,0.215,0.125,0.078,��,7.1,��
2022/11/12,12:30,0.155,0.143,0.229,0.220,0.217,0.125,0.079,��,6.2,��
2022/11/12,12:40,0.158,0.142,0.229,0.218,0.218,0.126,0.079,��,6.3,��
2022/11/12,12:50,0.157,0.142,0.227,0.219,0.215,0.125,0.080,��,7.6,��
2022/11/12,13:00,0.155,0.143,0.230,0.219,0.218,0.125,0.079,��,5.3,��
2022/11/12,13:10,0.157,0.143,0.228,0.219,0.217,0.126,0.079,��,5.5,��
2022/11/12,13:20,0.157,0.142,0.227,0.221,0.216,0.125,0.079,��,5.5,��
2022/11/12,13:30,0.157,0.142,0.230,0.220,0.215,0.126,0.079,��,3.9,��
2022/11/12,13:40,0.156,0.143,0.228,0.218,0.219,0.126,0.080,��,4.1,��
2022/11/12,13:50,0.155,0.143,0.228,0.218,0.217,0.124,0.079,��쓌,5.7,��
2022/11/12,14:00,0.158,0.142,0.230,0.221,0.214,0.125,0.079,��,3.9,��
2022/11/12,14:10,0.158,0.144,0.228,0.218,0.218,0.126,0.080,��쐼,4.4,��
2022/11/12,14:20,0.156,0.143,0.230,0.220,0.218,0.125,0.079,��,4.6,��
2022/11/12,14:30,0.158,0.142,0.229,0.221,0.216,0.125,0.079,��,4.1,��
2022/11/12,14:40,0.158,0.145,0.229,0.218,0.217,0.126,0.079,��,5.4,��
2022/11/12,14:50,0.157,0.142,0.230,0.220,0.218,0.126,0.079,��,5.6,��
2022/11/12,15:00,0.158,0.143,0.228,0.220,0.215,0.125,0.079,��,5.4,��
2022/11/12,15:10,0.156,0.143,0.229,0.220,0.217,0.125,0.080,��,3.7,��
2022/11/12,15:20,0.159,0.142,0.228,0.220,0.216,0.126,0.080,��,6.5,��
2022/11/12,15:30,0.157,0.143,0.229,0.218,0.217,0.125,0.080,��,6.2,��
2022/11/12,15:40,0.158,0.142,0.228,0.222,0.218,0.125,0.079,��,5.2,��
2022/11/12,15:50,0.157,0.143,0.230,0.218,0.217,0.126,0.079,��,5.4,��
2022/11/12,16:00,0.157,0.142,0.228,0.222,0.218,0.125,0.079,��,4.8,��
2022/11/12,16:10,0.158,0.144,0.230,0.220,0.217,0.125,0.080,��,4.5,��
2022/11/12,16:20,0.157,0.143,0.228,0.220,0.217,0.125,0.079,��쐼,4.7,��
2022/11/12,16:30,0.158,0.143,0.230,0.219,0.217,0.125,0.079,��쐼,4.6,��
2022/11/12,16:40,0.156,0.143,0.229,0.221,0.218,0.124,0.079,��쐼,4.2,��
2022/11/12,16:50,0.158,0.143,0.229,0.218,0.217,0.125,0.079,��쐼,4.9,��
2022/11/12,17:00,0.158,0.143,0.228,0.220,0.218,0.125,0.080,��쐼,4.3,��
2022/11/12,17:10,0.158,0.143,0.228,0.218,0.216,0.125,0.079,��쐼,3.6,��
2022/11/12,17:20,0.157,0.143,0.229,0.220,0.218,0.126,0.080,��쐼,5.1,��
2022/11/12,17:30,0.157,0.143,0.228,0.219,0.217,0.124,0.080,��쐼,4.4,��
2022/11/12,17:40,0.157,0.143,0.230,0.221,0.219,0.124,0.079,�쐼,4.7,��
2022/11/12,17:50,0.158,0.142,0.230,0.219,0.215,0.125,0.079,��쐼,4.9,��
2022/11/12,18:00,0.158,0.143,0.230,0.220,0.217,0.126,0.079,��쐼,4.4,��
2022/11/12,18:10,0.157,0.144,0.229,0.220,0.217,0.125,0.080,��쐼,4.4,��
2022/11/12,18:20,0.158,0.143,0.230,0.221,0.218,0.125,0.080,��쐼,4.1,��
2022/11/12,18:30,0.157,0.143,0.229,0.219,0.217,0.125,0.080,��쐼,4.4,��
2022/11/12,18:40,0.158,0.143,0.229,0.219,0.217,0.125,0.079,��쐼,4.3,��
2022/11/12,18:50,0.158,0.143,0.230,0.221,0.216,0.125,0.080,��쐼,4.4,��
2022/11/12,19:00,0.157,0.143,0.230,0.219,0.217,0.124,0.080,��,5.2,��
2022/11/12,19:10,0.156,0.142,0.229,0.220,0.215,0.125,0.079,��쐼,5.4,��
2022/11/12,19:20,0.158,0.143,0.229,0.219,0.218,0.125,0.080,��쐼,5.1,��
2022/11/12,19:30,0.157,0.143,0.229,0.220,0.216,0.125,0.080,��쐼,4.2,��
2022/11/12,19:40,0.158,0.143,0.229,0.220,0.217,0.125,0.079,��쐼,4.3,��
2022/11/12,19:50,0.158,0.142,0.230,0.220,0.216,0.126,0.080,��쐼,4.1,��
2022/11/12,20:00,0.156,0.143,0.228,0.220,0.218,0.126,0.079,��쐼,3.8,��
2022/11/12,20:10,0.158,0.143,0.229,0.220,0.217,0.125,0.080,��쐼,5.7,��
2022/11/12,20:20,0.158,0.142,0.230,0.220,0.218,0.125,0.079,��쐼,4.2,��
2022/11/12,20:30,0.158,0.143,0.229,0.219,0.216,0.125,0.080,��쐼,4.7,��
2022/11/12,20:40,0.158,0.143,0.230,0.219,0.217,0.125,0.080,��쐼,4.0,��
2022/11/12,20:50,0.158,0.143,0.230,0.219,0.216,0.125,0.080,��쐼,3.7,��
2022/11/12,21:00,0.157,0.143,0.228,0.220,0.217,0.126,0.081,�쐼,3.6,��
2022/11/12,21:10,0.158,0.143,0.230,0.221,0.219,0.125,0.080,��쐼,2.8,��
2022/11/12,21:20,0.158,0.143,0.229,0.220,0.217,0.126,0.081,��쐼,3.2,��
2022/11/12,21:30,0.157,0.144,0.229,0.220,0.218,0.126,0.081,��,3.9,��
2022/11/12,21:40,0.158,0.144,0.230,0.219,0.218,0.126,0.079,��,4.6,��
2022/11/12,21:50,0.157,0.144,0.229,0.221,0.219,0.125,0.080,��쐼,3.9,��
2022/11/12,22:00,0.157,0.143,0.230,0.218,0.217,0.126,0.080,��쐼,3.9,��
2022/11/12,22:10,0.158,0.143,0.229,0.220,0.220,0.126,0.080,��쐼,4.1,��
2022/11/12,22:20,0.158,0.143,0.230,0.220,0.217,0.126,0.079,��쐼,3.9,��
2022/11/12,22:30,0.158,0.144,0.230,0.220,0.219,0.126,0.080,�쐼,3.6,��
2022/11/12,22:40,0.157,0.144,0.229,0.220,0.217,0.126,0.080,��쐼,3.8,��
2022/11/12,22:50,0.159,0.144,0.230,0.220,0.217,0.125,0.080,��,4.6,��
2022/11/12,23:00,0.157,0.144,0.231,0.220,0.218,0.126,0.080,��,4.8,��
2022/11/12,23:10,0.158,0.144,0.229,0.222,0.217,0.125,0.080,��,5.8,��
2022/11/12,23:20,0.158,0.143,0.230,0.220,0.219,0.126,0.080,��,4.2,��
2022/11/12,23:30,0.157,0.144,0.230,0.220,0.217,0.126,0.080,��쐼,4.7,��
2022/11/12,23:40,0.157,0.142,0.230,0.220,0.218,0.125,0.080,��쐼,4.6,��
2022/11/12,23:50,0.158,0.145,0.230,0.219,0.217,0.126,0.080,�쐼,3.0,��
